When you browse on this site, cookies collect data to enhance your experience and personalize the content and advertising you see.
Visit our Privacy Policy to learn more. By continuing to use the site, you agree to this use of cookies and data.

Previsão horária em Abbey

Hoje, 22 Setembro, Terça-feira

Tempo Temperatura Precipitação Vento Pressão Humidade
00:00 +17°C° 0 mm 2 m/s 699 mmHg 49%
01:00 +16°C° 0 mm 2 m/s 699 mmHg 50%
02:00 +16°C° 0 mm 2 m/s 699 mmHg 51%
03:00 +15°C° 0 mm 2 m/s 700 mmHg 52%
04:00 +15°C° 0 mm 2 m/s 700 mmHg 53%
05:00 +13°C° 0 mm 3 m/s 700 mmHg 55%
06:00 +13°C° 0 mm 3 m/s 701 mmHg 59%
07:00 +13°C° 0 mm 4 m/s 701 mmHg 63%
08:00 +13°C° 0 mm 4 m/s 701 mmHg 68%
09:00 +14°C° 0 mm 5 m/s 702 mmHg 64%
10:00 +15°C° 0 mm 5 m/s 702 mmHg 59%
11:00 +16°C° 0 mm 5 m/s 703 mmHg 55%
12:00 +17°C° 0 mm 5 m/s 703 mmHg 53%
13:00 +19°C° 0 mm 5 m/s 702 mmHg 50%
14:00 +19°C° 0 mm 5 m/s 702 mmHg 48%
15:00 +19°C° 0 mm 5 m/s 702 mmHg 48%
16:00 +19°C° 0 mm 5 m/s 703 mmHg 49%
17:00 +17°C° 0 mm 5 m/s 703 mmHg 50%
18:00 +18°C° 0 mm 4 m/s 703 mmHg 52%
19:00 +17°C° 0 mm 4 m/s 703 mmHg 55%
20:00 +15°C° 0 mm 4 m/s 703 mmHg 58%
21:00 +15°C° 0.1 mm 4 m/s 703 mmHg 61%
22:00 +14°C° 0.1 mm 4 m/s 703 mmHg 63%
23:00 +14°C° 0.1 mm 4 m/s 703 mmHg 66%

Amanhã, 23 Setembro, Quarta-feira

Tempo Temperatura Precipitação Vento Pressão Humidade
00:00 +13°C° 0 mm 4 m/s 703 mmHg 67%
01:00 +13°C° 0 mm 4 m/s 702 mmHg 69%
02:00 +13°C° 0 mm 4 m/s 702 mmHg 71%
03:00 +13°C° 0 mm 4 m/s 702 mmHg 71%
04:00 +12°C° 0 mm 4 m/s 702 mmHg 72%
05:00 +12°C° 0 mm 4 m/s 702 mmHg 73%
06:00 +12°C° 0 mm 4 m/s 702 mmHg 71%
07:00 +13°C° 0 mm 5 m/s 702 mmHg 69%
08:00 +14°C° 0 mm 5 m/s 702 mmHg 68%
09:00 +15°C° 0 mm 5 m/s 702 mmHg 62%
10:00 +17°C° 0 mm 5 m/s 701 mmHg 57%
11:00 +20°C° 0 mm 5 m/s 701 mmHg 51%
12:00 +21°C° 0 mm 5 m/s 701 mmHg 46%
13:00 +23°C° 0 mm 5 m/s 701 mmHg 40%
14:00 +25°C° 0 mm 5 m/s 700 mmHg 35%
15:00 +25°C° 0 mm 4 m/s 699 mmHg 35%
16:00 +23°C° 0 mm 4 m/s 699 mmHg 34%
17:00 +24°C° 0 mm 3 m/s 698 mmHg 34%
18:00 +22°C° 0 mm 3 m/s 698 mmHg 36%
19:00 +21°C° 0 mm 4 m/s 697 mmHg 38%
20:00 +19°C° 0 mm 4 m/s 697 mmHg 40%
21:00 +19°C° 0 mm 5 m/s 696 mmHg 41%
22:00 +19°C° 0 mm 5 m/s 696 mmHg 42%
23:00 +19°C° 0 mm 6 m/s 695 mmHg 42%

Depois de amanhã, 24 Setembro, Quinta-feira

Tempo Temperatura Precipitação Vento Pressão Humidade
00:00 +17°C° 0 mm 6 m/s 695 mmHg 42%
01:00 +17°C° 0 mm 6 m/s 694 mmHg 41%
02:00 +17°C° 0 mm 6 m/s 693 mmHg 41%
03:00 +17°C° 0 mm 6 m/s 693 mmHg 40%
04:00 +17°C° 0 mm 6 m/s 692 mmHg 39%
05:00 +18°C° 0 mm 7 m/s 692 mmHg 38%
06:00 +18°C° 0 mm 8 m/s 692 mmHg 36%
07:00 +19°C° 0 mm 9 m/s 691 mmHg 34%
08:00 +21°C° 0 mm 10 m/s 691 mmHg 33%
09:00 +21°C° 0 mm 12 m/s 691 mmHg 34%
10:00 +22°C° 0 mm 13 m/s 691 mmHg 35%
11:00 +22°C° 0 mm 15 m/s 690 mmHg 36%
12:00 +22°C° 0 mm 14 m/s 691 mmHg 32%
13:00 +23°C° 0 mm 14 m/s 691 mmHg 28%
14:00 +23°C° 0 mm 13 m/s 691 mmHg 24%
15:00 +23°C° 0 mm 11 m/s 692 mmHg 27%
16:00 +22°C° 0 mm 8 m/s 692 mmHg 30%
17:00 +21°C° 0 mm 6 m/s 692 mmHg 32%
18:00 +20°C° 0 mm 5 m/s 692 mmHg 36%
19:00 +19°C° 0 mm 4 m/s 692 mmHg 40%
20:00 +17°C° 0 mm 3 m/s 692 mmHg 44%
21:00 +17°C° 0 mm 4 m/s 692 mmHg 42%
22:00 +16°C° 0 mm 6 m/s 692 mmHg 40%
23:00 +15°C° 0 mm 8 m/s 692 mmHg 38%

25 Setembro, Sexta-feira

Tempo Temperatura Precipitação Vento Pressão Humidade
00:00 +15°C° 0 mm 8 m/s 692 mmHg 41%
01:00 +14°C° 0 mm 7 m/s 692 mmHg 43%
02:00 +14°C° 0 mm 7 m/s 692 mmHg 45%
03:00 +12°C° 0 mm 7 m/s 692 mmHg 46%
04:00 +13°C° 0 mm 6 m/s 692 mmHg 47%
05:00 +13°C° 0 mm 6 m/s 692 mmHg 48%
06:00 +12°C° 0 mm 7 m/s 692 mmHg 48%
07:00 +12°C° 0 mm 7 m/s 692 mmHg 48%
08:00 +13°C° 0 mm 8 m/s 692 mmHg 48%
09:00 +15°C° 0 mm 8 m/s 692 mmHg 45%
10:00 +16°C° 0 mm 7 m/s 692 mmHg 42%
11:00 +17°C° 0 mm 7 m/s 692 mmHg 38%
12:00 +19°C° 0 mm 6 m/s 692 mmHg 35%
13:00 +20°C° 0 mm 6 m/s 693 mmHg 33%
14:00 +20°C° 0 mm 5 m/s 693 mmHg 30%
15:00 +20°C° 0 mm 4 m/s 693 mmHg 30%
16:00 +20°C° 0 mm 4 m/s 693 mmHg 31%
17:00 +19°C° 0 mm 3 m/s 693 mmHg 31%
18:00 +18°C° 0 mm 3 m/s 693 mmHg 35%
19:00 +17°C° 0 mm 2 m/s 693 mmHg 38%
20:00 +16°C° 0 mm 2 m/s 693 mmHg 41%
21:00 +15°C° 0.2 mm 2 m/s 693 mmHg 47%
22:00 +14°C° 0.2 mm 2 m/s 694 mmHg 52%
23:00 +14°C° 0.2 mm 2 m/s 694 mmHg 57%

26 Setembro, Sábado

Tempo Temperatura Precipitação Vento Pressão Humidade
00:00 +13°C° 0.1 mm 2 m/s 695 mmHg 57%
01:00 +13°C° 0.1 mm 2 m/s 695 mmHg 57%
02:00 +13°C° 0.1 mm 2 m/s 696 mmHg 57%
03:00 +11°C° 0 mm 3 m/s 697 mmHg 58%
04:00 +11°C° 0 mm 3 m/s 697 mmHg 59%
05:00 +10°C° 0 mm 4 m/s 698 mmHg 61%
06:00 +11°C° 0 mm 4 m/s 699 mmHg 60%
07:00 +11°C° 0 mm 4 m/s 699 mmHg 60%
08:00 +12°C° 0 mm 4 m/s 700 mmHg 60%
09:00 +13°C° 0 mm 5 m/s 700 mmHg 55%
10:00 +15°C° 0 mm 5 m/s 700 mmHg 50%
11:00 +16°C° 0 mm 5 m/s 700 mmHg 44%
12:00 +17°C° 0 mm 5 m/s 700 mmHg 41%
13:00 +19°C° 0 mm 5 m/s 700 mmHg 37%
14:00 +19°C° 0 mm 5 m/s 700 mmHg 34%
15:00 +19°C° 0 mm 5 m/s 699 mmHg 33%
16:00 +19°C° 0 mm 4 m/s 698 mmHg 32%
17:00 +19°C° 0 mm 4 m/s 697 mmHg 31%
18:00 +17°C° 0.1 mm 5 m/s 696 mmHg 35%
19:00 +16°C° 0.1 mm 7 m/s 695 mmHg 38%
20:00 +15°C° 0.1 mm 8 m/s 694 mmHg 41%
21:00 +16°C° 0.3 mm 8 m/s 693 mmHg 45%
22:00 +16°C° 0.3 mm 9 m/s 693 mmHg 50%
23:00 +16°C° 0.3 mm 10 m/s 692 mmHg 54%

27 Setembro, Domingo

Tempo Temperatura Precipitação Vento Pressão Humidade
00:00 +16°C° 0 mm 10 m/s 692 mmHg 50%
01:00 +16°C° 0 mm 11 m/s 692 mmHg 47%
02:00 +16°C° 0 mm 11 m/s 693 mmHg 44%
03:00 +14°C° 0 mm 10 m/s 694 mmHg 46%
04:00 +13°C° 0 mm 9 m/s 694 mmHg 47%
05:00 +12°C° 0 mm 8 m/s 695 mmHg 49%
06:00 +12°C° 0 mm 8 m/s 696 mmHg 50%
07:00 +12°C° 0 mm 8 m/s 696 mmHg 50%
08:00 +12°C° 0 mm 7 m/s 697 mmHg 50%
09:00 +14°C° 0 mm 7 m/s 697 mmHg 46%
10:00 +13°C° 0 mm 8 m/s 698 mmHg 42%
11:00 +15°C° 0 mm 8 m/s 698 mmHg 38%
12:00 +15°C° 0 mm 7 m/s 699 mmHg 36%
13:00 +15°C° 0 mm 7 m/s 699 mmHg 34%
14:00 +14°C° 0 mm 7 m/s 699 mmHg 32%
15:00 +14°C° 0 mm 7 m/s 699 mmHg 36%
16:00 +12°C° 0 mm 7 m/s 699 mmHg 40%
17:00 +11°C° 0 mm 7 m/s 700 mmHg 44%
18:00 +10°C° 0 mm 8 m/s 700 mmHg 51%
19:00 +10°C° 0 mm 8 m/s 700 mmHg 58%
20:00 +9°C° 0 mm 8 m/s 700 mmHg 65%
21:00 +9°C° 0 mm 7 m/s 700 mmHg 66%
22:00 +9°C° 0 mm 7 m/s 701 mmHg 68%
23:00 +9°C° 0 mm 7 m/s 701 mmHg 69%
Mostrar mais